Weather History for New Iberia, LA

Change the Weather History Date:

Monday, October 7, 2013

  Actual Average Record
Temperature  
Mean Temperature 68 °F 73 °F  
Max Temperature 79 °F 83 °F 91 °F (1981)
Min Temperature 56 °F 62 °F 45 °F (1952)
Degree Days  
Heating Degree Days 0 0  
Month to date heating degree days 0 0  
Since 1 July heating degree days 0 1  
Cooling Degree Days 3 8  
Month to date cooling degree days 97 62  
Year to date cooling degree days 2975 2618  
Growing Degree Days 17 (Base 50)    
Moisture  
Dew Point 53 °F    
Average Humidity 63    
Maximum Humidity 86    
Minimum Humidity 39    
Precipitation  
Precipitation 0.00 in 0.20 in 2.50 in (2007)
Month to date precipitation 0.57 1.46  
Year to date precipitation 57.66 46.94  
Sea Level Pressure  
Sea Level Pressure 30.04 in    
Wind  
Wind Speed 7 mph (North)    
Max Wind Speed 16 mph    
Max Gust Speed 21 mph    
Visibility 10 miles    
Events      
T = Trace of Precipitation, MM = Missing Value Source: NWS Daily Summary

Daily Weather History Graph

Daily Weather History Graph

Search for Another Location

Airport:

Trip Planner

Search our weather history database for the weather conditions in past years. The results will help you decide how hot, cold, wet, or windy it might be!

Date:

Astronomy

Oct. 07, 2013 Rise Set
Actual Time 7:04 AM CDT 6:45 PM CDT
Civil Twilight 6:40 AM CDT 7:09 PM CDT
Nautical Twilight 6:12 AM CDT 7:37 PM CDT
Astronomical Twilight 5:45 AM CDT 8:04 PM CDT
Moon 9:41 AM CDT (10/7) 8:44 PM CDT (10/7)
Length of Visible Light 12h 28m
Length of Day
11h 40m
Waxing Crescent, 9% of the Moon is Illuminated
Oct 7
Waxing Crescent
Oct 11
First Quarter
Oct 18
Full
Oct 26
Last Quarter
Nov 3
New

Hourly Weather History & Observations

Time (CDT) Temp. Dew Point Humidity Pressure Visibility Wind Dir Wind Speed Gust Speed Precip Events Conditions
12:53 AM 60.1 °F 54.0 °F 80% 30.01 in 10.0 mi Calm Calm - N/A   Clear
1:53 AM 59.0 °F 53.1 °F 81% 30.01 in 10.0 mi Calm Calm - N/A   Clear
2:53 AM 59.0 °F 53.1 °F 81% 30.01 in 10.0 mi NNW 4.6 mph - N/A   Clear
3:53 AM 59.0 °F 53.1 °F 81% 30.01 in 10.0 mi NNW 4.6 mph - N/A   Clear
4:53 AM 60.1 °F 51.1 °F 72% 30.01 in 10.0 mi North 10.4 mph - N/A   Clear
5:53 AM 57.9 °F 51.1 °F 78% 30.02 in 10.0 mi North 6.9 mph - N/A   Clear
6:53 AM 55.9 °F 51.1 °F 84% 30.03 in 10.0 mi North 5.8 mph - N/A   Clear
7:53 AM 59.0 °F 52.0 °F 78% 30.05 in 10.0 mi North 5.8 mph - N/A   Clear
8:53 AM 63.0 °F 54.0 °F 72% 30.07 in 10.0 mi North 10.4 mph - N/A   Clear
9:53 AM 68.0 °F 52.0 °F 56% 30.08 in 10.0 mi NNE 10.4 mph 20.7 mph N/A   Clear
10:53 AM 73.0 °F 51.1 °F 46% 30.08 in 10.0 mi NNE 10.4 mph - N/A   Clear
11:53 AM 73.9 °F 48.9 °F 41% 30.07 in 10.0 mi NNE 10.4 mph - N/A   Clear
12:53 PM 75.9 °F 50.0 °F 40% 30.06 in 10.0 mi North 9.2 mph 18.4 mph N/A   Clear
1:53 PM 77.0 °F 50.0 °F 39% 30.03 in 10.0 mi North 12.7 mph - N/A   Clear
2:53 PM 78.1 °F 52.0 °F 40% 30.01 in 10.0 mi NNW 11.5 mph - N/A   Clear
3:53 PM 79.0 °F 52.0 °F 39% 30.00 in 10.0 mi NNW 12.7 mph 19.6 mph N/A   Clear
4:53 PM 78.1 °F 52.0 °F 40% 30.00 in 10.0 mi NNW 11.5 mph - N/A   Clear
5:53 PM 77.0 °F 53.1 °F 43% 30.00 in 10.0 mi NNW 11.5 mph - N/A   Clear
6:53 PM 70.0 °F 55.9 °F 61% 30.01 in 10.0 mi NNW 4.6 mph - N/A   Clear
7:53 PM 66.9 °F 57.0 °F 70% 30.03 in 10.0 mi North 3.5 mph - N/A   Clear
8:53 PM 64.9 °F 57.0 °F 75% 30.05 in 10.0 mi NNW 3.5 mph - N/A   Clear
9:53 PM 63.0 °F 57.0 °F 81% 30.07 in 10.0 mi Calm Calm - N/A   Clear
10:53 PM 63.0 °F 55.9 °F 78% 30.08 in 10.0 mi North 3.5 mph - N/A   Clear
11:53 PM 61.0 °F 55.9 °F 83% 30.07 in 10.0 mi Calm Calm - N/A   Clear